Погода в Майске

Погода в Майске : погода сейчас, прогноз погоды и архив. Всё, что Вы хотите узнать о погоде в Майске!

Хотите узнать прогноз погоды в Майске? Тогда Вам сюда: Погода в Майске

Поиск расширенной информации на нашем сайте:

Другие новости

Новости СМИ2

Главная страница сайта

Новости сайта

03.07.2017

Напоминаем, что на нашем специализированном сайте Метеоцентр.Азия вы можете получить высокодетализированные автоматические прогнозы погоды по пунктам России, СНГ и мира в авиационном формате (включающие направление и скорость ветра, видимость, явления погоды, количество и форму облачности, нижнюю и верхнюю границу облачности).


Погода в Майске - сегодня

Время (UTC), дата Ветер
(°,м/с) 
Видим.   Явления Облачность Т
(°С)
Тd
(°С)
f(%) Тe
(°С)
Pmin
(гПа)
dP
(гПа)
Po
(мм)
O2
(г/м3)
Тmin Tmax R s Состояние
почвы
15 20.02.18 180 (Ю) 20000 м    9/0 верхняя 
[Ci sp]
-9.2 -11.7 82 -9  1027.4  -0.8  761  318           
18 20.02.18 180 (Ю) 20000 м  слаб. снег  9/0 средняя 
[As op]
-8.4 -10.3 86 -10  1026.7  -0.5  760  317           
21 20.02.18 тихо ()   20000 м    ясно 
-12 -14 85 -12  1026.4  -0.6  760  322           
00 21.02.18 090 (В) 20000 м    ясно 
-15.2 -15.8 95 -15  1025.7  -0.8  759  325  -15.2    0.0  48  неравномерный
сухой снег
100% 
03 21.02.18 тихо ()   20000 м    9/0 верхняя 
[Cs]
-16.2 -16.8 95 -16  1025.7  -0.6  759  326           
06 21.02.18 090 (В) 20000 м    10/0 верхняя 
[Cs]
-9.4 -10.6 91 -9  1024.1  -0.7  758  317           
09 21.02.18 090 (В) 20000 м    5/5 600 м верхняя 
[Sc|Cs]
-5.2 -5.9 95 -7  1021.1  -2.7  756  311           
12 21.02.18 140 (ЮВ) 20000 м    10/10 600 м 
[Sc]
-6.2 -7 94 -8  1019.7  -1.6  755  312    -4.8       
15 21.02.18 110 (В) 20000 м    10/10 600 м 
[Sc]
-7.4 -8.3 93 -10  1017.2  -2.5  753  313           
18 21.02.18 090 (В) 20000 м    10/10 600 м 
[Sc]
-7.4 -8.8 90 -9  1015  -2.1  752  312           
21 21.02.18 090 (В) 20000 м    10/10 600 м 
[Sc]
-6.8 -8.4 88 -10  1012.7  -2.3  750  311           
00 22.02.18 090 (В) 20000 м    10/10 600 м 
[Sc]
-7.2 -8.7 89 -11  1010.3  -2.3  748  310  -7.6      48  неравномерный
сухой снег
100% 
03 22.02.18 тихо ()   10 км  слаб. ливневой снег  10/10 600 м кучево-дожд. 
[Cb cap]
-7.2 -8.1 93 -7  1009.5  -0.8  748  310           
06 22.02.18 тихо ()   4000 м  слаб. ливневой снег  10/10 600 м кучево-дожд. 
[Cb cap]
-6.4 -8 88 -6  1009.8  0.3  748  309           
09 22.02.18 270 (З) 10 км  слаб. ливневой снег  10/10 600 м 
[Sc]
-6.4 -8 88 -10  1011.5  1.7  749  310           
12 22.02.18 230 (ЮЗ) 20000 м    3/3 300 м кучево-дожд. 
[Cb cap]
-9.5 -10.7 91 -13  1014.4  2.7  751  315    -9.5     
15 22.02.18 230 (ЮЗ) 20000 м    ясно 
-13.2 -14.5 90 -13  1015.9  1.3  752  320           
18 22.02.18 230 (ЮЗ) 20000 м    ясно 
-14 -15.3 90 -14  1017.1  1.2  753  321           
21 22.02.18 180 (Ю) 20000 м    ясно 
-17.2 -17.8 95 -17  1017.6  0.2  753  325           
00 23.02.18 140 (ЮВ) 20000 м    ясно 
-20.8 -22 90 -21  1016.9  -0.8  752  330  -20.8      52  неравномерный
сухой снег
100% 
03 23.02.18 тихо ()   20000 м    9/0 средняя 
[Ac As]
-16 -17.3 90 -16  1016.1  -0.6  752  323  -20.8         
06 23.02.18 140 (ЮВ) 20000 м  снег  10/0 средняя 
[As op]
-11.4 -12.7 90 -13  1015.5  -0.4  752  317           
09 23.02.18 270 (З) 20000 м  снег  10/0 средняя 
[As op]
-8.7 -11.1 83 -10  1016.8  1.5  753  314           
12 23.02.18 230 (ЮЗ) 20000 м  снег  10/0 средняя 
[As op]
-10.4 -12.4 85 -10  1017.8  0.8  753  317    -8.5     
15 23.02.18 тихо ()   10 км  снег  10/0 средняя 
[As op]
-14 -14.6 95 -14  1018.3  0.3  754  321           
Время (UTC), дата Ветер
(°,м/с) 
Видим.   Явления Облачность Т
(°С)
Тd
(°С)
f(%) Тe
(°С)
Pmin
(гПа)
dP
(гПа)
Po
(мм)
O2
(г/м3)
Тmin Tmax R s Состояние
почвы

Для получения пояснительной информации подведите курсор к названию столбца.

ПОГОДА в Майске - архив

Всё, что Вы хотите узнать о погоде в Майске - удобно и подробно!

Выберите нужную дату (начиная с 1 января 2015* года) и нажмите кнопку "Найти".
Будут отображены архивные сводки погоды по пункту Майск, начиная с указанной даты.


Отображать данные в формате CSV (для использования в таблицах Excel)


Внимание! Наш архив погоды предназначен исключительно для личного некоммерческого использования в познавательных целях. Если Вам необходимы официальные справки о состоянии погоды (для производственных, юридических, коммерческих и т.п. целей), обращайтесь в органы Росгидромета.

*Примечание: данная дата относится к архиву по метеостанциям СССР (Россия, СНГ, Балтия).
Архив по метеостанциям Зарубежной Европы и Азии (кроме Китая) хранится 10 дней, по другим регионам земного шара (Китай, Африка, Америка, Австралия, Океания) - 1 день.

Майск - район местоположения метеостанции


Название, широта, долгота, высота метеостанции:
Майск 57.8°ш. 77.3°д. 100 м над ур. моря [Российская Федерация]

Дополнительная информация

В oтличие oт бoльшинства пoгoдных сайтoв мы публикуем пoдрoбную метеoинфoрмацию в детальнoм прoфессиoнальнoм фoрмате.

Характеристики температуры и влажнoсти вoздуха измеряются на высoте 2 м в тени вдали oт зданий и деревьев.
Скoрoсть ветра измеряется на высoте 10 м (на урoвне рoста челoвека скoрoсть ветра ниже в 1.5-2 раза). Если метеoстанция нахoдится в гoрoде или в лесу, тo скoрoсть ветра занижена на 2-4 м/с пo сравнению с oткрытым местoм. Скoрoсть ветра над акватoриями крупных рек и oзёр, а также на вершинах хoлмoв на 2-5 м/с выше, чем в oбычных услoвиях.
Атмoсфернoе давление в разных тoчках местнoсти мoжет значительнo oтличаться oт давления на метеoстанции, в зависимoсти oт услoвий рельефа (при пoдъёме на 10 м давление пoнижается примернo на 1 мм рт.ст.).